Flag for Bahrain Weather past 2 weeks in Riffa, Bahrain

Now
102 °F

Sunny.


Feels Like: 107 °F
Forecast: 90 / 99 °F
Wind: 12 mph from Southeast

Location: Bahrain International Airport

Current Time: Aug 23, 2014 at 1:37:26 PM

Latest Report: Aug 23, 2014 at 1:00 PM


Visibility: 10 mi

Pressure: 29.53 "Hg

Humidity: 31%

Dew point: 66 °F

Location of RiffaLocation

Historic Weather in Riffa — Graph

°F

Riffa temperature yesterday

Maximum temperature yesterday: 102 °F (at 11:00 AM)
Minimum temperature yesterday: 93 °F (at 12:00 AM)
Average temperature yesterday: 97 °F

Past Weeks' High & Low Weather Summary

 TemperatureHumidityPressure
High109 °F (Aug 21, 2:00 PM)80% (Aug 20, 3:00 AM)29.71 "Hg (Aug 20, 3:00 AM)
Low88 °F (Aug 11, 3:00 AM)9% (Aug 23, 12:00 PM)29.39 "Hg (Aug 8, 6:00 PM)
Average95 °F55%29.52 "Hg
* Reported Aug 8 12:00 Noon — Aug 23 12:00 Noon, Riffa, Weather by CustomWeather, © 2014

Note: Actual official high and low records may vary slightly from our data, if they occured in-between our weather recording intervals... More about our weather records

Advertising

Riffa weather history for previous 24 hours

 ConditionsComfort  
Time TempWeatherWind HumidityBarometerVisibility
12:00 PM
Aug 23
109 °FSunny.5 mph9%29.56 "Hg10 mi
11:00 AM108 °FPassing clouds.5 mph13%29.56 "HgN/A
10:00 AM104 °FSunny.9 mph17%29.56 "Hg10 mi
9:00 AM102 °FSunny.8 mph20%29.56 "Hg10 mi
8:00 AM102 °FSunny.6 mph18%29.56 "Hg10 mi
7:00 AM97 °FSunny.5 mph32%29.56 "Hg10 mi
6:00 AM95 °FSunny.3 mph36%29.53 "Hg10 mi
5:00 AM93 °FClear.5 mph44%29.53 "Hg4 mi
4:00 AM95 °FClear.3 mph41%29.53 "Hg4 mi
3:00 AM91 °FClear.2 mph49%29.53 "Hg4 mi
2:00 AM95 °FClear.3 mph41%29.53 "Hg4 mi
1:00 AM91 °FClear.5 mph49%29.53 "Hg4 mi
12:00 AM95 °FClear.1 mph32%29.53 "Hg4 mi
11:00 PM
Aug 22
95 °FClear.2 mph36%29.53 "Hg10 mi
10:00 PM95 °FClear.2 mph41%29.56 "Hg10 mi
9:00 PM97 °FClear.3 mph34%29.56 "Hg10 mi
8:00 PM95 °FClear.3 mph44%29.53 "Hg10 mi
7:00 PM95 °FClear.6 mph50%29.53 "Hg10 mi
6:00 PM97 °FSunny.8 mph47%29.50 "Hg10 mi
5:00 PM99 °FSunny.10 mph42%29.50 "Hg10 mi
4:00 PM100 °FSunny.12 mph42%29.50 "Hg10 mi
3:00 PM102 °FSunny.13 mph33%29.50 "Hg10 mi
2:00 PM102 °FSunny.16 mph33%29.53 "Hg10 mi
1:00 PM102 °FSunny.15 mph35%29.53 "Hg10 mi
Weather by CustomWeather, © 2014

See weather overviewHow to use our weather pages